Location: Newark
(44.6028°N, 124.0883°W)
Time: 23:55:41
(UTC+00:00)

Vanguard 1 Rocket - Pass Details

Date: 25 October 2019
Orbit: 651 x 4225 km, 34.3° (Epoch: 14 November)

Event Time Altitude Azimuth Distance (km) Brightness Sun altitude
Rises 16:22:12 0° 213° (SSW) 4,334 10.9 14.8°
Reaches altitude 10° 16:24:56 10° 203° (SSW) 3,713 10.7 15.2°
Maximum altitude 16:33:51 34° 142° (SE) 3,272 11.8 16.5°
Drops below altitude 10° 16:49:11 10° 87° (E) 6,410 12.5 18.6°
Sets 16:55:50 0° 81° (E) 7,912 12.8 19.5°
